Language: 


Des rapports , des résumés tant et plus, au choix de chacun....


Données Historiques de Météogheer
Journalier Rapport pour Février 5, 2018 Unitée:  Impériale    Métrique   Les deux
Suivant Jour »
Journalier Hebdomadaire Mensuel Annuel Sur mesure
  Max: Min: Moyenne:
Température: 40.3 °F 32 °F 36.1 °F
Point de rosée: 33.8 °F 26.6 °F 31.8 °F
Humidité: 90% 0% 81%
Vent: 17.7mph 0mph 7.6mph
Rafales: 17.7mph - -
Vent- - ENE
Pression: 30.3 in 0 in -
Pluie: 0 in    
Historical Graphs
 
 
Données tabulaires pour Février 5, 2018
Heure Température Point de rosée Pression Vent Vent Rafales Humidité Pluie Taux (Horaire) Conditions
00:04 36.1 °F 33.8 °F 30.3 in NE 7.4 mph 8.7 mph 90% 0 in
00:09 36.1 °F 33.8 °F 30.3 in NE 4.9 mph 9.4 mph 90% 0 in
00:14 36.1 °F 33.8 °F 30.2 in NE 10.5 mph 10.5 mph 90% 0 in
00:19 36.1 °F 33.8 °F 30.2 in NE 8.5 mph 10.5 mph 90% 0 in
00:24 36.1 °F 33.8 °F 30.2 in NE 6.9 mph 9.8 mph 90% 0 in
00:29 36.1 °F 33.8 °F 30.2 in NE 8.1 mph 8.5 mph 90% 0 in
00:34 36.1 °F 33.8 °F 30.2 in NE 8.1 mph 8.5 mph 90% 0 in
00:39 36.1 °F 33.8 °F 30.2 in NE 7.4 mph 9.6 mph 90% 0 in
00:44 36.1 °F 33.8 °F 30.3 in NE 8.5 mph 9.8 mph 90% 0 in
00:49 36.1 °F 33.8 °F 30.3 in NNE 10.3 mph 12.1 mph 90% 0 in
00:54 36.1 °F 33.8 °F 30.3 in NE 8.7 mph 12.8 mph 90% 0 in
00:59 36.1 °F 33.8 °F 30.3 in ENE 6.3 mph 12.8 mph 90% 0 in
01:04 36.1 °F 33.8 °F 30.3 in ENE 7.4 mph 10.5 mph 90% 0 in
01:09 36.1 °F 33.8 °F 30.3 in NE 6.5 mph 10.3 mph 90% 0 in
01:14 36.1 °F 33.8 °F 30.2 in ENE 7.2 mph 9.6 mph 90% 0 in
01:19 36.1 °F 33.8 °F 30.2 in ENE 9.6 mph 9.6 mph 90% 0 in
01:24 36.1 °F 33.8 °F 30.2 in NNE 8.1 mph 10.3 mph 90% 0 in
01:29 36.1 °F 33.8 °F 30.2 in NE 6 mph 10.3 mph 90% 0 in
01:34 36.1 °F 33.8 °F 30.2 in ENE 7.8 mph 10.1 mph 90% 0 in
01:39 36.1 °F 33.8 °F 30.2 in ENE 7.8 mph 10.1 mph 90% 0 in
01:44 36.1 °F 33.8 °F 30.2 in NE 8.1 mph 8.5 mph 90% 0 in
01:49 36.1 °F 33.8 °F 30.2 in NE 6.3 mph 8.5 mph 90% 0 in
01:54 36.1 °F 33.8 °F 30.2 in ENE 5.8 mph 8.5 mph 90% 0 in
01:59 36.1 °F 33.8 °F 30.2 in NE 5.8 mph 8.1 mph 90% 0 in
02:04 36.1 °F 33.8 °F 30.2 in NNE 7.6 mph 8.7 mph 90% 0 in
02:09 36.1 °F 33.8 °F 30.2 in NE 7.8 mph 12.8 mph 90% 0 in
02:14 36.1 °F 33.8 °F 30.2 in ENE 5.8 mph 12.8 mph 90% 0 in
02:20 36.1 °F 33.8 °F 30.2 in ENE 7.6 mph 10.1 mph 90% 0 in
02:25 36.1 °F 33.8 °F 30.2 in NNE 4.3 mph 8.5 mph 90% 0 in
02:30 36.1 °F 33.8 °F 30.2 in ENE 4.3 mph 5.6 mph 90% 0 in
02:35 36.1 °F 33.8 °F 30.2 in Calm   6.3 mph 90% 0 in
02:40 36.1 °F 33.8 °F 30.2 in NE 1.6 mph 6.3 mph 90% 0 in
02:45 36.1 °F 33.8 °F 30.2 in NE 3.1 mph 4.9 mph 90% 0 in
02:50 36.1 °F 33.8 °F 30.2 in ENE 4.5 mph 5.4 mph 90% 0 in
02:55 36.1 °F 33.8 °F 30.2 in Calm   5.4 mph 90% 0 in
03:00 36.1 °F 33.8 °F 30.2 in NE 4.3 mph 7.4 mph 90% 0 in
03:05 36.1 °F 33.8 °F 30.2 in NE 4.3 mph 7.4 mph 90% 0 in
03:10 36.1 °F 33.8 °F 30.2 in NE 5.4 mph 5.8 mph 90% 0 in
03:15 36.1 °F 33.8 °F 30.2 in NE 4.9 mph 5.6 mph 90% 0 in
03:20 36.1 °F 33.8 °F 30.2 in NNE 5.4 mph 6 mph 90% 0 in
03:25 36.1 °F 33.8 °F 30.2 in ENE 7.2 mph 9.2 mph 90% 0 in
03:30 36.1 °F 33.8 °F 30.2 in NNE 6.5 mph 9.2 mph 90% 0 in
03:35 36.1 °F 33.8 °F 30.2 in NE 6.3 mph 8.1 mph 90% 0 in
03:40 36.1 °F 33.8 °F 30.2 in NE 5.8 mph 8.7 mph 90% 0 in
03:45 36.1 °F 33.8 °F 30.2 in ENE 7.8 mph 9.4 mph 90% 0 in
03:50 36.1 °F 33.8 °F 30.2 in ENE 9.6 mph 9.6 mph 90% 0 in
03:55 36.1 °F 33.8 °F 30.2 in ENE 5.8 mph 9.6 mph 90% 0 in
04:00 36.1 °F 33.8 °F 30.2 in ENE 9.4 mph 9.6 mph 90% 0 in
04:05 36.1 °F 33.8 °F 30.2 in ENE 7.6 mph 9.4 mph 90% 0 in
04:11 36.1 °F 33.8 °F 30.2 in ENE 6.9 mph 8.7 mph 90% 0 in
04:16 36.1 °F 33.8 °F 30.2 in ENE 7.8 mph 8.1 mph 90% 0 in
04:21 36.1 °F 33.8 °F 30.2 in NE 8.7 mph 8.9 mph 90% 0 in
04:26 36.1 °F 33.8 °F 30.2 in ENE 5.6 mph 8.9 mph 90% 0 in
04:31 36.1 °F 33.8 °F 30.2 in ENE 6.5 mph 8.7 mph 90% 0 in
04:36 36.1 °F 33.8 °F 30.2 in ENE 7.6 mph 8.5 mph 90% 0 in
04:41 36.1 °F 33.8 °F 30.2 in NE 5.8 mph 10.1 mph 90% 0 in
04:46 36.1 °F 33.8 °F 30.2 in ENE 8.5 mph 10.5 mph 90% 0 in
04:51 36.1 °F 33.8 °F 30.2 in ENE 9.6 mph 10.5 mph 90% 0 in
04:56 36.1 °F 33.8 °F 30.2 in ENE 7.4 mph 9.6 mph 90% 0 in
05:01 36.1 °F 33.8 °F 30.2 in NE 8.1 mph 8.5 mph 90% 0 in
05:06 36.1 °F 33.8 °F 30.2 in ENE 7.8 mph 8.1 mph 90% 0 in
05:11 36.1 °F 33.8 °F 30.2 in NE 6.3 mph 8.7 mph 90% 0 in
05:16 36.1 °F 33.8 °F 30.2 in NE 7.8 mph 8.7 mph 90% 0 in
05:21 36.1 °F 33.8 °F 30.2 in ENE 7.2 mph 8.1 mph 90% 0 in
05:26 36.1 °F 33.8 °F 30.2 in NE 6.5 mph 8.9 mph 90% 0 in
05:31 36.1 °F 33.8 °F 30.2 in ENE 7.6 mph 8.9 mph 90% 0 in
05:36 36.1 °F 33.8 °F 30.2 in NE 6.5 mph 8.7 mph 90% 0 in
05:41 36.1 °F 33.8 °F 30.2 in NE 5.4 mph 8.7 mph 90% 0 in
05:46 36.1 °F 33.8 °F 30.2 in ENE 7.2 mph 8.1 mph 90% 0 in
05:51 36.1 °F 33.8 °F 30.2 in NE 6.5 mph 8.7 mph 90% 0 in
05:56 36.1 °F 33.8 °F 30.2 in NE 6.5 mph 8.7 mph 90% 0 in
06:01 36.1 °F 33.8 °F 30.2 in NE 8.5 mph 8.5 mph 90% 0 in
06:06 36.1 °F 33.8 °F 30.2 in NE 6.3 mph 8.5 mph 90% 0 in
06:12 36.1 °F 33.8 °F 30.2 in NE 5.6 mph 6.7 mph 90% 0 in
06:17 36.1 °F 33.8 °F 30.2 in NE 8.5 mph 9.6 mph 90% 0 in
06:22 36.1 °F 33.8 °F 30.2 in NE 7.8 mph 9.8 mph 90% 0 in
06:27 36.1 °F 33.8 °F 30.2 in NNE 7.4 mph 9.8 mph 90% 0 in
06:32 36.1 °F 33.8 °F 30.2 in NE 5.6 mph 8.5 mph 90% 0 in
06:37 36.1 °F 33.8 °F 30.2 in NNE 7.6 mph 7.6 mph 90% 0 in
06:42 36.1 °F 33.8 °F 30.2 in NNE 7.8 mph 8.5 mph 90% 0 in
06:47 36.1 °F 33.8 °F 30.2 in NE 6.5 mph 8.5 mph 90% 0 in
06:52 36.1 °F 33.8 °F 30.2 in NE 7.4 mph 9.6 mph 90% 0 in
06:57 36.1 °F 33.8 °F 30.2 in NE 6 mph 9.6 mph 90% 0 in
07:02 36.1 °F 33.8 °F 30.2 in NE 6 mph 9.6 mph 90% 0 in
07:07 36.1 °F 33.8 °F 30.2 in NE 5.8 mph 5.8 mph 90% 0 in
07:12 36.1 °F 33.8 °F 30.2 in NE 5.8 mph 5.8 mph 90% 0 in
07:17 36.1 °F 33.8 °F 30.2 in NNE 5.8 mph 5.8 mph 90% 0 in
07:22 36.1 °F 33.8 °F 30.2 in NNE 5.8 mph 5.8 mph 90% 0 in
07:27 36.1 °F 33.8 °F 30.2 in NNE 5.8 mph 5.8 mph 90% 0 in
07:32 36.1 °F 33.8 °F 30.2 in NNE 6 mph 7.2 mph 90% 0 in
07:37 36.1 °F 33.8 °F 30.2 in NNE 7.8 mph 8.5 mph 90% 0 in
07:42 36.1 °F 33.8 °F 30.2 in NNE 7.4 mph 9.6 mph 90% 0 in
07:47 36.1 °F 33.8 °F 30.2 in NE 7.8 mph 10.5 mph 90% 0 in
07:52 36.1 °F 33.8 °F 30.2 in NE 7.6 mph 10.5 mph 90% 0 in
07:57 36.1 °F 33.8 °F 30.2 in NE 7.2 mph 10.7 mph 90% 0 in
08:02 36.1 °F 33.8 °F 30.2 in NNE 5.8 mph 11 mph 90% 0 in
08:07 36.1 °F 33.8 °F 30.2 in NE 7.6 mph 11 mph 90% 0 in
08:12 36.1 °F 33.8 °F 30.2 in NE 11 mph 12.3 mph 90% 0 in
08:17 36.1 °F 33.8 °F 30.2 in NE 9.8 mph 12.5 mph 90% 0 in
08:22 36.1 °F 33.8 °F 30.2 in NNE 9.8 mph 12.5 mph 90% 0 in
08:27 36.1 °F 33.8 °F 30.2 in ENE 6.3 mph 12.8 mph 90% 0 in
08:32 36.1 °F 33.8 °F 30.2 in NE 7.6 mph 12.8 mph 90% 0 in
08:37 36.1 °F 33.8 °F 30.2 in NE 9.8 mph 12.5 mph 90% 0 in
08:42 36.1 °F 33.8 °F 30.2 in ENE 8.7 mph 12.5 mph 90% 0 in
08:47 36.1 °F 33.8 °F 30.2 in ENE 9.8 mph 12.3 mph 90% 0 in
08:52 36.1 °F 33.8 °F 30.2 in ENE 8.1 mph 11 mph 90% 0 in
09:00 36.1 °F 33.8 °F 30.2 in NNE 7.6 mph 11.4 mph 90% 0 in
09:05 36.1 °F 33.8 °F 30.2 in ENE 8.7 mph 11.4 mph 90% 0 in
09:10 36.1 °F 33.8 °F 30.2 in NE 5.8 mph 11.9 mph 90% 0 in
09:15 36.1 °F 33.8 °F 30.2 in ENE 7.4 mph 11.9 mph 90% 0 in
09:20 36.1 °F 33.8 °F 30.2 in ENE 5.8 mph 10.1 mph 90% 0 in
09:25 36.1 °F 33.8 °F 30.2 in NE 5.8 mph 10.3 mph 90% 0 in
09:30 36.1 °F 33.8 °F 30.2 in NE 8.5 mph 10.3 mph 90% 0 in
09:35 36.1 °F 33.8 °F 30.2 in ENE 12.5 mph 14.8 mph 90% 0 in
09:40 36.1 °F 33.8 °F 30.2 in ENE 10.3 mph 14.8 mph 90% 0 in
09:45 36.1 °F 33.8 °F 30.2 in East 10.1 mph 14.8 mph 90% 0 in
09:51 36.1 °F 33.8 °F 30.2 in ENE 17.7 mph 17.7 mph 90% 0 in
09:56 36.1 °F 33.8 °F 30.2 in ENE 17.7 mph 17.7 mph 90% 0 in
10:01 36.1 °F 33.8 °F 30.2 in ENE 8.5 mph 8.5 mph 90% 0 in
10:06 36.1 °F 33.8 °F 30.2 in ENE 10.7 mph 14.3 mph 90% 0 in
10:11 36.1 °F 33.8 °F 30.2 in NE 10.3 mph 14.3 mph 90% 0 in
10:16 36.1 °F 33.8 °F 30.2 in NE 8.7 mph 12.5 mph 90% 0 in
10:21 36.1 °F 33.8 °F 30.2 in ENE 8.7 mph 14.5 mph 90% 0 in
10:26 36.1 °F 33.8 °F 30.2 in ENE 9.8 mph 14.5 mph 90% 0 in
10:31 32 °F 33.8 °F 0 in ENE 8.5 mph 12.1 mph 0% 0 in
10:36 32 °F 33.8 °F 30.2 in ENE 8.5 mph 12.1 mph 0% 0 in
10:41 32 °F 33.8 °F 30.2 in NE 5.8 mph 8.9 mph 0% 0 in
10:46 32 °F 33.8 °F 30.2 in NE 6.5 mph 7.6 mph 0% 0 in
10:51 32 °F 33.8 °F 30.2 in ENE 5.8 mph 6.5 mph 0% 0 in
10:56 32 °F 33.8 °F 30.2 in East 7.8 mph 9.6 mph 0% 0 in
11:01 32 °F 33.8 °F 30.2 in NE 6.5 mph 9.6 mph 0% 0 in
11:06 40.3 °F 26.6 °F 30.2 in NE 6.5 mph 8.1 mph 57% 0 in
11:11 38.5 °F 26.6 °F 30.2 in NE 6.5 mph 6.5 mph 61% 0 in
11:16 37.4 °F 28.4 °F 30.2 in NE 6.5 mph 6.5 mph 67% 0 in
11:21 36.9 °F 28.4 °F 30.2 in NE 6.5 mph 6.5 mph 70% 0 in
11:27 36.5 °F 30.2 °F 30.2 in NE 6.5 mph 6.5 mph 73% 0 in
11:32 36.3 °F 30.2 °F 30.2 in NE 6.5 mph 6.5 mph 74% 0 in
11:43 36.5 °F 30.2 °F 30.2 in NE 6.5 mph 6.5 mph 77% 0 in
11:48 36.3 °F 30.2 °F 30.2 in NE 6.5 mph 6.5 mph 77% 0 in
11:53 36.1 °F 30.2 °F 30.2 in NE 6.5 mph 6.5 mph 77% 0 in
11:58 36 °F 30.2 °F 30.2 in NE 6.5 mph 6.5 mph 77% 0 in
12:03 36 °F 30.2 °F 30.2 in NE 6.5 mph 6.5 mph 78% 0 in
12:08 36.1 °F 30.2 °F 30.2 in NE 6.5 mph 6.5 mph 78% 0 in
12:13 36.1 °F 30.2 °F 30.2 in NE 6.5 mph 6.5 mph 77% 0 in
12:18 36.1 °F 30.2 °F 30.2 in NNE 10.3 mph 10.3 mph 77% 0 in
12:23 36.3 °F 30.2 °F 30.2 in NNE 10.3 mph 10.3 mph 77% 0 in
12:28 36.7 °F 30.2 °F 30.2 in NNE 10.3 mph 10.3 mph 77% 0 in
12:33 36.9 °F 30.2 °F 30.2 in NNE 10.3 mph 10.3 mph 76% 0 in
12:38 37 °F 30.2 °F 30.2 in East 6.5 mph 10.3 mph 76% 0 in
12:43 37.4 °F 30.2 °F 30.2 in East 6.5 mph 7.4 mph 75% 0 in
12:48 37.4 °F 30.2 °F 30.2 in East 6.5 mph 6.5 mph 74% 0 in
12:53 37.6 °F 30.2 °F 30.2 in East 6.5 mph 6.5 mph 75% 0 in
12:58 38.1 °F 32 °F 30.2 in East 6.5 mph 6.5 mph 75% 0 in
13:03 38.3 °F 32 °F 30.2 in East 6.5 mph 6.5 mph 74% 0 in
13:08 38.7 °F 32 °F 30.2 in East 6.5 mph 6.5 mph 74% 0 in
13:13 38.7 °F 30.2 °F 30.2 in East 6.5 mph 6.5 mph 73% 0 in
13:18 38.7 °F 30.2 °F 30.2 in East 6.5 mph 6.5 mph 73% 0 in
13:23 38.5 °F 30.2 °F 30.2 in East 6.5 mph 6.5 mph 72% 0 in
13:28 37.9 °F 30.2 °F 30.2 in East 6.5 mph 6.5 mph 72% 0 in
13:34 37.9 °F 30.2 °F 30.2 in East 6.5 mph 6.5 mph 72% 0 in
13:39 38.3 °F 32 °F 30.2 in East 6.5 mph 6.5 mph 74% 0 in
13:44 38.5 °F 30.2 °F 30.2 in East 6.5 mph 6.5 mph 73% 0 in
13:49 38.7 °F 30.2 °F 30.2 in East 6.5 mph 6.5 mph 72% 0 in
13:54 38.8 °F 32 °F 30.2 in East 6.5 mph 6.5 mph 74% 0 in
13:59 38.8 °F 30.2 °F 30.2 in East 6.5 mph 6.5 mph 72% 0 in
14:04 38.7 °F 30.2 °F 30.2 in East 6.5 mph 6.5 mph 71% 0 in
14:09 38.7 °F 30.2 °F 30.2 in East 6.5 mph 6.5 mph 72% 0 in
14:14 38.5 °F 30.2 °F 30.2 in East 6.5 mph 6.5 mph 72% 0 in
14:19 38.8 °F 30.2 °F 30.2 in East 6.5 mph 6.5 mph 72% 0 in
14:24 39 °F 30.2 °F 30.2 in East 6.5 mph 6.5 mph 71% 0 in
14:29 39.2 °F 30.2 °F 30.2 in East 6.5 mph 6.5 mph 71% 0 in
14:34 39.6 °F 32 °F 30.2 in East 6.5 mph 6.5 mph 71% 0 in
14:39 39.7 °F 30.2 °F 30.2 in East 6.5 mph 6.5 mph 70% 0 in
14:44 39.7 °F 30.2 °F 30.2 in East 6.5 mph 6.5 mph 69% 0 in
14:50 39.7 °F 30.2 °F 30.2 in East 6.5 mph 6.5 mph 68% 0 in
14:55 39.9 °F 30.2 °F 30.2 in East 6.5 mph 6.5 mph 67% 0 in
15:00 40.1 °F 30.2 °F 30.2 in East 6.5 mph 6.5 mph 66% 0 in
15:05 39.7 °F 30.2 °F 30.2 in NE 13.2 mph 13.2 mph 66% 0 in
15:10 39.4 °F 28.4 °F 30.2 in NE 13.2 mph 13.2 mph 66% 0 in
15:15 39.4 °F 30.2 °F 30.2 in NE 13.2 mph 13.2 mph 67% 0 in
15:20 39.4 °F 30.2 °F 30.2 in NE 13.2 mph 13.2 mph 68% 0 in
15:25 39 °F 30.2 °F 30.2 in NE 13.2 mph 13.2 mph 68% 0 in
15:30 38.7 °F 30.2 °F 30.2 in NE 10.3 mph 12.8 mph 69% 0 in
15:35 38.7 °F 30.2 °F 30.2 in NE 10.3 mph 12.8 mph 71% 0 in
15:40 38.8 °F 30.2 °F 30.2 in NE 10.3 mph 10.3 mph 69% 0 in
15:45 39 °F 30.2 °F 30.1 in NE 10.3 mph 10.3 mph 69% 0 in
15:50 39.2 °F 30.2 °F 30.1 in NE 10.3 mph 10.3 mph 67% 0 in
15:55 39.4 °F 30.2 °F 30.1 in NE 10.3 mph 10.3 mph 68% 0 in
16:00 39.6 °F 30.2 °F 30.2 in NE 10.3 mph 10.3 mph 68% 0 in
16:05 39.7 °F 30.2 °F 30.2 in NE 10.3 mph 10.3 mph 68% 0 in
16:10 39.9 °F 30.2 °F 30.2 in NE 10.3 mph 10.3 mph 69% 0 in
16:15 39.9 °F 30.2 °F 30.2 in NE 10.3 mph 10.3 mph 69% 0 in
16:20 39.9 °F 30.2 °F 30.2 in NE 10.3 mph 10.3 mph 69% 0 in
16:25 39.7 °F 30.2 °F 30.2 in NE 10.3 mph 10.3 mph 69% 0 in
16:30 39.7 °F 30.2 °F 30.2 in NE 10.3 mph 10.3 mph 67% 0 in
16:35 39.4 °F 30.2 °F 30.2 in NE 10.3 mph 10.3 mph 67% 0 in
16:40 39.2 °F 30.2 °F 30.2 in ENE 8.5 mph 8.5 mph 67% 0 in
16:45 39.2 °F 30.2 °F 30.2 in ENE 8.5 mph 8.5 mph 67% 0 in
16:50 39 °F 30.2 °F 30.2 in ENE 8.5 mph 8.5 mph 68% 0 in
16:55 38.8 °F 30.2 °F 30.2 in ENE 8.5 mph 8.5 mph 69% 0 in
17:00 38.7 °F 30.2 °F 30.2 in ENE 8.5 mph 8.5 mph 70% 0 in
17:05 38.5 °F 30.2 °F 30.2 in ENE 8.5 mph 8.5 mph 68% 0 in
17:10 38.1 °F 28.4 °F 30.2 in ENE 8.5 mph 8.5 mph 67% 0 in
17:15 37.9 °F 28.4 °F 30.2 in ENE 8.5 mph 8.5 mph 68% 0 in
17:20 37.6 °F 28.4 °F 30.2 in ENE 8.5 mph 8.5 mph 69% 0 in
17:25 37.4 °F 28.4 °F 30.2 in ENE 8.5 mph 8.5 mph 70% 0 in
17:30 37 °F 30.2 °F 30.2 in ENE 8.5 mph 8.5 mph 71% 0 in
17:35 37 °F 30.2 °F 30.2 in ENE 8.5 mph 8.5 mph 73% 0 in
17:40 36.9 °F 30.2 °F 30.2 in ENE 8.5 mph 8.5 mph 73% 0 in
17:45 36.7 °F 30.2 °F 30.2 in ENE 8.5 mph 8.5 mph 74% 0 in
17:50 36.7 °F 30.2 °F 30.2 in ENE 8.5 mph 8.5 mph 73% 0 in
17:55 36.5 °F 30.2 °F 30.2 in ENE 8.5 mph 8.5 mph 73% 0 in
18:00 36.5 °F 30.2 °F 30.2 in ENE 8.5 mph 8.5 mph 73% 0 in
18:05 36.5 °F 30.2 °F 30.2 in ENE 8.5 mph 8.5 mph 73% 0 in
18:10 36.3 °F 28.4 °F 30.2 in ENE 8.5 mph 8.5 mph 73% 0 in
18:16 36.1 °F 30.2 °F 30.2 in ENE 8.5 mph 8.5 mph 74% 0 in
18:21 36.1 °F 30.2 °F 30.2 in ENE 8.5 mph 8.5 mph 75% 0 in
18:26 35.8 °F 30.2 °F 30.2 in ENE 8.5 mph 8.5 mph 75% 0 in
18:31 35.4 °F 28.4 °F 30.2 in ENE 8.5 mph 8.5 mph 76% 0 in
18:36 35.4 °F 30.2 °F 30.2 in ENE 8.5 mph 8.5 mph 77% 0 in
18:41 35.4 °F 30.2 °F 30.2 in ENE 8.5 mph 8.5 mph 78% 0 in
18:46 35.4 °F 30.2 °F 30.2 in ENE 8.5 mph 8.5 mph 79% 0 in
18:51 35.4 °F 30.2 °F 30.2 in ENE 8.5 mph 8.5 mph 79% 0 in
18:56 35.4 °F 30.2 °F 30.2 in ENE 8.5 mph 8.5 mph 79% 0 in
19:01 35.4 °F 30.2 °F 30.2 in ENE 8.5 mph 8.5 mph 79% 0 in
19:06 35.2 °F 30.2 °F 30.2 in ENE 8.5 mph 8.5 mph 79% 0 in
19:11 35.4 °F 30.2 °F 30.2 in ENE 8.5 mph 8.5 mph 79% 0 in
19:16 35.4 °F 30.2 °F 30.1 in ENE 8.5 mph 8.5 mph 78% 0 in
19:21 35.2 °F 28.4 °F 30.1 in ENE 8.5 mph 8.5 mph 77% 0 in
19:26 35.2 °F 28.4 °F 30.1 in ENE 8.5 mph 8.5 mph 77% 0 in
19:31 35.1 °F 28.4 °F 30.2 in NE 9.2 mph 9.2 mph 77% 0 in
19:36 34.9 °F 28.4 °F 30.2 in NNE 5.6 mph 9.2 mph 77% 0 in
19:41 34.5 °F 28.4 °F 30.2 in NNE 5.8 mph 9.2 mph 78% 0 in
19:46 34.2 °F 28.4 °F 30.1 in North 7.4 mph 7.4 mph 78% 0 in
19:51 33.8 °F 28.4 °F 30.1 in North 7.4 mph 7.4 mph 79% 0 in
19:56 33.6 °F 28.4 °F 30.1 in NNE 7.6 mph 7.6 mph 81% 0 in
20:01 33.4 °F 28.4 °F 30.1 in NNE 7.6 mph 7.6 mph 81% 0 in
20:06 33.3 °F 28.4 °F 30.1 in NNE 7.6 mph 7.6 mph 82% 0 in
20:11 33.6 °F 30.2 °F 30.1 in NNE 7.6 mph 7.6 mph 84% 0 in
20:16 33.6 °F 30.2 °F 30.1 in NNE 7.6 mph 7.6 mph 84% 0 in
20:21 33.4 °F 30.2 °F 30.1 in NNE 7.6 mph 7.6 mph 84% 0 in
20:26 33.4 °F 30.2 °F 30.1 in NE 6.5 mph 6.5 mph 84% 0 in
20:31 33.4 °F 30.2 °F 30.1 in NE 6.5 mph 6.5 mph 85% 0 in
20:36 33.4 °F 30.2 °F 30.1 in NE 6.5 mph 6.5 mph 85% 0 in
20:41 33.4 °F 30.2 °F 30.1 in NE 6.5 mph 6.5 mph 86% 0 in
20:46 33.4 °F 30.2 °F 30.1 in NE 6.5 mph 6.5 mph 86% 0 in
20:51 33.4 °F 30.2 °F 30.1 in NE 6.5 mph 6.5 mph 86% 0 in
20:56 33.4 °F 30.2 °F 30.1 in NE 6.5 mph 6.5 mph 87% 0 in
21:01 33.4 °F 30.2 °F 30.1 in NE 6.5 mph 6.5 mph 87% 0 in
21:06 33.4 °F 30.2 °F 30.1 in NNE 9.6 mph 9.6 mph 87% 0 in
21:11 33.4 °F 30.2 °F 30.1 in NNE 9.6 mph 9.6 mph 87% 0 in
21:16 33.4 °F 30.2 °F 30.1 in NNE 7.4 mph 9.6 mph 87% 0 in
21:21 33.3 °F 30.2 °F 30.1 in NNE 7.4 mph 9.6 mph 87% 0 in
21:26 33.3 °F 30.2 °F 30.1 in NNE 7.4 mph 7.4 mph 87% 0 in
21:31 33.3 °F 30.2 °F 30.1 in NE 5.4 mph 7.4 mph 87% 0 in
21:37 33.1 °F 30.2 °F 30.1 in NE 6.5 mph 7.4 mph 87% 0 in
21:42 33.1 °F 30.2 °F 30.1 in NE 6.5 mph 6.5 mph 88% 0 in
21:47 32.9 °F 30.2 °F 30.1 in NE 6.5 mph 6.5 mph 88% 0 in
21:52 32.9 °F 30.2 °F 30.1 in NE 6.5 mph 6.5 mph 88% 0 in
21:57 32.9 °F 30.2 °F 30.1 in NE 6.5 mph 6.5 mph 88% 0 in
22:02 32.9 °F 30.2 °F 30.1 in NE 6.5 mph 6.5 mph 89% 0 in
22:07 32.9 °F 30.2 °F 30.1 in NE 6.5 mph 6.5 mph 89% 0 in
22:12 32.9 °F 30.2 °F 30.1 in NE 6.5 mph 6.5 mph 89% 0 in
22:17 32.9 °F 30.2 °F 30.1 in NE 6.5 mph 6.5 mph 89% 0 in
22:22 32.9 °F 30.2 °F 30.1 in NE 6.3 mph 7.6 mph 90% 0 in
22:27 32.9 °F 30.2 °F 30.1 in NE 7.4 mph 8.1 mph 90% 0 in
22:32 32.9 °F 30.2 °F 30.1 in NE 7.4 mph 8.1 mph 90% 0 in
22:37 33.1 °F 30.2 °F 30.1 in NE 7.4 mph 7.4 mph 90% 0 in
22:43 32.9 °F 30.2 °F 30.1 in NE 8.5 mph 8.5 mph 90% 0 in
22:48 32.9 °F 30.2 °F 30.1 in NE 7.6 mph 8.5 mph 90% 0 in
22:53 32.9 °F 30.2 °F 30.1 in NE 7.8 mph 8.5 mph 90% 0 in
22:58 32.9 °F 30.2 °F 30.1 in NE 6.3 mph 10.3 mph 90% 0 in
23:03 32.7 °F 30.2 °F 30.1 in ENE 8.7 mph 13 mph 90% 0 in
23:08 32.7 °F 30.2 °F 30.1 in NE 9.8 mph 13 mph 90% 0 in
23:13 32.7 °F 30.2 °F 30.1 in NE 7.8 mph 13 mph 90% 0 in
23:18 32.5 °F 30.2 °F 30.1 in NE 6.5 mph 13 mph 90% 0 in
23:23 32.5 °F 30.2 °F 30.1 in NNE 8.5 mph 10.5 mph 90% 0 in
23:28 32.5 °F 30.2 °F 30.1 in NNE 8.5 mph 10.5 mph 90% 0 in
23:33 32.5 °F 30.2 °F 30.1 in NE 8.1 mph 8.9 mph 90% 0 in
23:38 32.5 °F 30.2 °F 30.1 in NE 7.8 mph 8.9 mph 90% 0 in
23:43 32.4 °F 30.2 °F 30.1 in NE 7.6 mph 10.3 mph 90% 0 in
23:48 32.4 °F 30.2 °F 30.1 in NE 6.5 mph 10.3 mph 90% 0 in
23:53 32.4 °F 30.2 °F 30.1 in NE 6.5 mph 12.3 mph 90% 0 in
23:59 32.4 °F 30.2 °F 30.1 in NE 7.8 mph 12.3 mph 90% 0 in
Données Historique de Météo Turbie

Mise a jour : 24/05/2018 23:12:13
Généré par Cumulus 1.9.4 (1099)